Station CHBV2 - 8638901 - Chesapeake Bay Bridge Tunnel, VA Image indicating link to RSS feed of recent meteorological observations for station CHBV2


Conditions at CHBV2 as of
(7:00 pm EDT)
2300 GMT on 04/15/2024:
     

Click on the graph icon in the table below to see a time series plot of the last five days of that observation.

5-day plot - Wind Direction Wind Direction (WDIR):WSW ( 240 deg true )
5-day plot - Wind Speed Wind Speed (WSPD): 5.1 kts
5-day plot - Wind Gust Wind Gust (GST): 7.0 kts
5-day plot - Atmospheric Pressure Atmospheric Pressure (PRES):29.78 in
5-day plot - Pressure Tendency Pressure Tendency (PTDY):-0.02 in ( Falling )
5-day plot - Air Temperature Air Temperature (ATMP): 75.9 °F
5-day plot - Wind Speed at 10 Meters Wind Speed at 10 meters (WSPD10M): 5.8 kts
5-day plot - Wind Speed at 20 Meters Wind Speed at 20 meters (WSPD20M): 7.8 kts
5-day plot -  Wind Speed, Wind Gust and Atmospheric Pressure Combined plot of Wind Speed, Gust, and Air Pressure
NOS Water Level Observation Network Water Level
Previous observations
TIME
(EDT)
5-day plot - Wind Direction
WDIR
 
5-day plot - Wind Speed
WSPD
kts
5-day plot - Wind Gust
GST
kts
5-day plot - Wave Height
WVHT
ft
5-day plot - Dominant Wave Period
DPD
sec
5-day plot - Average Wave Period
APD
sec
5-day plot - Mean Wave Direction
MWD
 
5-day plot - Atmospheric Pressure
PRES
in
5-day plot - Pressure Tendency
PTDY
in
5-day plot - Air Temperature
ATMP
°F
5-day plot - Water Temperature
WTMP
°F
5-day plot - Dew Point
DEWP
°F
5-day plot - Salinity
SAL
psu
5-day plot - Visibility
VIS
nmi
5-day plot - Tide (above MLLW)
TIDE
ft
2024-04-15 06:54 pm SW 5.1 7.0----29.78- 77.2-----
2024-04-15 06:48 pmWSW 5.1 7.0----29.78- 77.5-----
2024-04-15 06:42 pm SW 4.1 7.0----29.78- 77.4-----
2024-04-15 06:36 pm SW 5.1 6.0----29.78- 75.7-----
2024-04-15 06:30 pm S 2.9 5.1----29.78-------
2024-04-15 06:24 pm S 4.1 5.1----29.78-------
2024-04-15 06:18 pmSSE 4.1 7.0----29.79- 69.4-----
2024-04-15 06:12 pm SE 6.0 7.0----29.79- 68.7-----
2024-04-15 06:06 pmESE 5.1 7.0----29.78- 68.0-----
2024-04-15 06:00 pmESE 6.0 7.0----29.78-0.03 68.2-----
2024-04-15 05:54 pmESE 6.0 8.0----29.78- 69.3-----
2024-04-15 05:48 pmESE 6.0 8.0----29.78- 70.0-----
2024-04-15 05:42 pmESE 6.0 7.0----29.78- 68.0-----
2024-04-15 05:36 pmESE 6.0 8.0----29.78- 67.5-----
2024-04-15 05:30 pm E 5.1 7.0----29.78- 67.1-----
2024-04-15 05:24 pmESE 7.0 8.0----29.78- 66.7-----
2024-04-15 05:18 pmESE 6.0 7.0------ 67.3-----
2024-04-15 05:12 pmESE 4.1 8.0------ 67.5-----
2024-04-15 05:06 pmESE 6.0 8.0------ 67.3-----
2024-04-15 05:00 pm E 7.0 8.9----29.79-0.04 67.3-----
2024-04-15 04:54 pmESE 8.0 8.9----29.79- 67.3-----
2024-04-15 04:48 pmESE 8.0 8.9----29.79- 67.5-----
2024-04-15 04:42 pmESE 7.0 9.9----29.80- 67.6-----
2024-04-15 04:36 pmESE 8.0 9.9----29.79- 67.8-----
2024-04-15 04:30 pmESE 8.0 9.9----29.80- 67.8-----
2024-04-15 04:24 pm SE 8.9 11.1----29.79- 67.6-----
2024-04-15 04:18 pm SE 8.9 11.1----29.80- 67.5-----
2024-04-15 04:12 pm SE 8.9 11.1----29.80- 68.0-----
2024-04-15 04:06 pm SE 8.0 11.1----29.80- 68.9-----
2024-04-15 04:00 pm SE 9.9 12.0----29.80-0.03 70.7-----
2024-04-15 03:54 pm SE 8.0 9.9----29.80- 71.6-----
2024-04-15 03:48 pm SE 8.0 8.9----29.80- 72.3-----
2024-04-15 03:42 pm SE 7.0 8.0----29.80- 70.9-----
2024-04-15 03:36 pm SE 6.0 8.9----29.80- 71.6-----
2024-04-15 03:30 pm SE 8.0 8.9----29.80- 71.1-----
2024-04-15 03:24 pmSSE 5.1 6.0----29.80- 72.9-----
2024-04-15 03:18 pm SE 6.0 8.9----29.81- 73.9-----
2024-04-15 03:12 pmSSW 1.9 5.1----29.81- 78.8-----
2024-04-15 03:06 pmWSW 5.1 7.0----29.81- 78.8-----
2024-04-15 03:00 pm W 6.0 6.0----29.81-0.04 78.1-----
2024-04-15 02:54 pm W 6.0 7.0----29.81- 78.1-----
2024-04-15 02:48 pm W 7.0 8.0----29.81- 79.3-----
2024-04-15 02:42 pm W 7.0 7.0----29.82- 80.1-----
2024-04-15 02:36 pmWSW 7.0 8.0----29.82- 81.0-----
2024-04-15 02:30 pmWSW 8.0 8.9----29.82- 81.1-----
2024-04-15 02:24 pmWSW 8.9 9.9----29.82- 81.0-----
2024-04-15 02:18 pmWSW 8.9 9.9----29.82- 80.2-----
2024-04-15 02:12 pmWSW 8.0 11.1----29.83- 80.1-----
2024-04-15 02:06 pmWSW 8.0 11.1----29.83- 79.7-----
2024-04-15 02:00 pmWSW 6.0 11.1----29.83-0.03 79.3-----
2024-04-15 01:54 pmWSW 8.0 9.9----29.83- 79.3-----
2024-04-15 01:48 pmWSW 7.0 11.1----29.83- 79.2-----
2024-04-15 01:42 pmWSW 7.0 11.1----29.83- 78.8-----
2024-04-15 01:36 pmWSW 8.0 11.1----29.83- 78.6-----
2024-04-15 01:30 pmWSW 8.9 11.1----29.83- 78.3-----
2024-04-15 01:24 pmWSW 7.0 11.1----29.83- 77.7-----
2024-04-15 01:18 pmWSW 9.9 12.0----29.83- 77.4-----
2024-04-15 01:12 pmWSW 11.1 13.0----29.83- 77.4-----
2024-04-15 01:06 pmWSW 12.0 13.0----29.83- 77.2-----
2024-04-15 01:00 pmWSW 12.0 14.0----29.83-0.02 76.5-----
2024-04-15 12:54 pmWSW 12.0 14.0----29.83- 75.9-----
2024-04-15 12:48 pmWSW 13.0 13.0----29.83- 75.2-----
2024-04-15 12:42 pmWSW 13.0 13.0----29.84- 73.8-----
2024-04-15 12:36 pmWSW 12.0 14.0----29.84- 73.6-----
2024-04-15 12:30 pmWSW 13.0 14.0----29.84- 72.5-----
2024-04-15 12:24 pmWSW 13.0 14.0----29.84- 72.3-----
2024-04-15 12:18 pmWSW 12.0 14.0----29.84- 72.9-----
2024-04-15 12:12 pmWSW 9.9 13.0----29.84- 72.9-----
2024-04-15 12:06 pmWSW 9.9 13.0----29.84- 72.1-----
2024-04-15 12:00 pmWSW 12.0 13.0----29.85+0.00 70.7-----
2024-04-15 11:54 amWSW 13.0 14.0----29.85- 70.3-----
2024-04-15 11:48 amWSW 13.0 13.0----29.85- 69.8-----
2024-04-15 11:42 amWSW 13.0 13.0----29.85- 69.1-----
2024-04-15 11:36 amWSW 13.0 13.0----29.85- 68.7-----
2024-04-15 11:30 amWSW 12.0 12.0----29.85- 67.6-----
2024-04-15 11:24 amWSW 12.0 13.0----29.85- 67.5-----
2024-04-15 11:18 amWSW 12.0 14.0----29.85- 67.8-----
2024-04-15 11:12 amWSW 12.0 13.0----29.85- 67.1-----
2024-04-15 11:06 amWSW 13.0 14.0----29.85- 66.6-----
2024-04-15 11:00 amWSW 11.1 12.0----29.86+0.02 65.8-----
2024-04-15 10:54 amWSW 12.0 12.0----29.86- 65.8-----
2024-04-15 10:48 amWSW 12.0 13.0----29.86- 65.5-----
2024-04-15 10:42 amWSW 12.0 13.0----29.85- 65.3-----
2024-04-15 10:36 amWSW 12.0 13.0----29.85- 64.8-----
2024-04-15 10:30 amWSW 12.0 13.0----29.85-------
2024-04-15 10:24 amWSW 12.0 12.0----29.86-------
2024-04-15 10:18 amWSW 11.1 12.0----29.85- 63.7-----
2024-04-15 10:12 amWSW 11.1 12.0----29.85- 63.7-----
2024-04-15 10:06 amWSW 12.0 12.0----29.85- 63.5-----
2024-04-15 10:00 am W 11.1 12.0----29.85+0.03 63.3-----
2024-04-15 09:54 amWSW 11.1 12.0----29.85- 63.3-----
2024-04-15 09:48 amWSW 11.1 12.0----29.85- 63.0-----
2024-04-15 09:42 amWSW 11.1 12.0----29.85- 62.8-----
2024-04-15 09:36 am W 12.0 12.0----29.85- 63.0-----
2024-04-15 09:30 am W 12.0 13.0----29.85- 62.8-----
2024-04-15 09:24 am W 12.0 14.0----29.85- 62.6-----
2024-04-15 09:18 am W 13.0 14.0----29.84- 62.6-----
2024-04-15 09:12 am W 14.0 15.0----29.84- 62.4-----
2024-04-15 09:06 am W 14.0 15.0----29.84- 62.4-----
2024-04-15 09:00 am W 13.0 14.0----29.84+0.04 62.4-----
2024-04-15 08:54 amWSW 13.0 14.0----29.84- 62.2-----
2024-04-15 08:48 amWSW 13.0 14.0----29.84- 62.1-----
2024-04-15 08:42 amWSW 13.0 15.0----29.84- 61.9-----
2024-04-15 08:36 amWSW 14.0 15.0----29.84- 62.1-----
2024-04-15 08:30 amWSW 14.0 15.0----29.84- 61.9-----
2024-04-15 08:24 amWSW 14.0 14.0----29.84- 61.7-----
2024-04-15 08:18 amWSW 14.0 15.0----29.84- 61.9-----
2024-04-15 08:12 amWSW 15.0 15.9----29.84- 61.9-----
2024-04-15 08:06 amWSW 15.0 17.1----29.84- 61.9-----
2024-04-15 08:00 amWSW 15.0 17.1----29.84+0.05 62.1-----
2024-04-15 07:54 amWSW 15.0 15.9----29.84- 61.9-----
2024-04-15 07:48 amWSW 14.0 15.0----29.84- 61.7-----
2024-04-15 07:42 amWSW 14.0 15.9----29.84- 61.7-----
2024-04-15 07:36 amWSW 15.0 15.9----29.84- 61.7-----
2024-04-15 07:30 am W 14.0 15.0----29.84- 61.5-----
2024-04-15 07:24 am W 13.0 15.0----29.84- 61.5-----
2024-04-15 07:18 amWSW 13.0 14.0----29.84- 61.7-----
2024-04-15 07:12 amWSW 13.0 15.0----29.83- 61.7-----
2024-04-15 07:06 amWSW 13.0 15.0----29.83- 61.7-----
2024-04-15 07:00 amWSW 13.0 15.9----29.82+0.03 61.7-----
2024-04-15 06:54 amWSW 15.0 15.9----29.82- 61.7-----
2024-04-15 06:48 amWSW 15.0 15.9----29.82- 61.7-----
2024-04-15 06:42 amWSW 14.0 15.9----29.82- 61.9-----
2024-04-15 06:36 amWSW 15.0 15.9----29.81- 61.9-----
2024-04-15 06:30 amWSW 15.0 15.9----29.81- 62.1-----
2024-04-15 06:24 amWSW 15.0 15.9----29.81- 62.2-----
2024-04-15 06:18 amWSW 15.0 17.1----29.81- 62.2-----
2024-04-15 06:12 amWSW 15.0 17.1----29.80- 62.4-----
2024-04-15 06:06 amWSW 15.9 18.1----29.80- 62.8-----
2024-04-15 06:00 amWSW 15.9 18.1----29.80+0.01 62.6-----
2024-04-15 05:54 amWSW 17.1 18.1----29.80- 62.8-----
2024-04-15 05:48 amWSW 17.1 18.1----29.80- 62.8-----
2024-04-15 05:42 amWSW 14.0 18.1----29.80- 63.0-----
2024-04-15 05:36 amWSW 13.0 17.1----29.80- 63.0-----
2024-04-15 05:30 amWSW 13.0 15.9----29.79- 63.1-----
2024-04-15 05:24 amWSW 12.0 15.0----29.79- 63.3-----
2024-04-15 05:18 amWSW 12.0 15.9----29.79- 63.5-----
2024-04-15 05:12 amWSW 12.0 17.1----29.79- 63.7-----
2024-04-15 05:06 am SW 13.0 15.9----29.79- 63.9-----
2024-04-15 05:00 am SW 13.0 15.9----29.79-0.01 64.0-----
2024-04-15 04:54 am SW 12.0 15.0----29.80- 63.9-----
2024-04-15 04:48 am SW 12.0 15.9----29.80- 63.9-----
2024-04-15 04:42 am SW 11.1 13.0----29.79- 63.5-----
2024-04-15 04:36 am SW 11.1 13.0----29.80- 63.1-----
2024-04-15 04:30 am SW 11.1 13.0----29.79- 63.0-----
2024-04-15 04:24 am SW 11.1 13.0----29.79- 62.8-----
2024-04-15 04:18 am SW 11.1 13.0----29.80- 63.0-----
2024-04-15 04:12 am SW 12.0 14.0----29.79- 62.8-----
2024-04-15 04:06 am SW 11.1 14.0----29.79- 63.1-----
2024-04-15 04:00 am SW 11.1 15.0----29.79-0.03 63.7-----
2024-04-15 03:54 am SW 11.1 13.0----29.79- 63.3-----
2024-04-15 03:48 am SW 11.1 15.0----29.79- 63.1-----
2024-04-15 03:42 am SW 11.1 14.0----29.79- 63.3-----
2024-04-15 03:36 am SW 11.1 15.0----29.79- 63.5-----
2024-04-15 03:30 am SW 12.0 15.9----29.79- 63.7-----
2024-04-15 03:24 am SW 12.0 15.0----29.79- 64.0-----
2024-04-15 03:18 am SW 12.0 15.0----29.79- 63.9-----
2024-04-15 03:12 am SW 12.0 15.0----29.79- 64.0-----
2024-04-15 03:06 am SW 12.0 15.0----29.79- 64.2-----
2024-04-15 03:00 am SW 12.0 15.0----29.79-0.03 64.2-----
2024-04-15 02:54 am SW 12.0 15.0----29.79- 63.9-----
2024-04-15 02:48 am SW 12.0 15.9----29.79- 63.5-----
2024-04-15 02:42 am SW 13.0 15.9----29.79- 63.3-----
2024-04-15 02:36 am SW 14.0 17.1----29.79- 63.5-----
2024-04-15 02:30 am SW 12.0 15.9----29.80- 63.3-----
2024-04-15 02:24 am SW 13.0 15.0----29.80- 63.3-----
2024-04-15 02:18 am SW 13.0 15.9----29.80- 63.5-----
2024-04-15 02:12 am SW 13.0 15.9----29.80- 63.7-----
2024-04-15 02:06 am SW 14.0 15.9----29.80- 63.7-----
2024-04-15 02:00 am SW 14.0 17.1----29.81-0.01 63.7-----
2024-04-15 01:54 am SW 14.0 17.1----29.81- 63.7-----
2024-04-15 01:48 am SW 14.0 17.1----29.81- 63.9-----
2024-04-15 01:42 am SW 14.0 17.1----29.81- 63.9-----
2024-04-15 01:36 am SW 15.0 18.1----29.81- 64.0-----
2024-04-15 01:30 am SW 14.0 17.1----29.81- 64.0-----
2024-04-15 01:24 am SW 14.0 17.1----29.81- 64.4-----
2024-04-15 01:18 am SW 14.0 18.1----29.81- 64.4-----
2024-04-15 01:12 am SW 15.0 18.1----29.82- 64.6-----
2024-04-15 01:06 am SW 14.0 17.1----29.82- 64.6-----
2024-04-15 01:00 am SW 14.0 19.0----29.82+0.00 64.9-----
2024-04-15 12:54 am SW 15.0 19.0----29.82- 64.9-----
2024-04-15 12:48 am SW 15.9 19.0----29.82- 64.9-----
2024-04-15 12:42 am SW 15.0 20.0----29.82- 65.1-----
2024-04-15 12:36 am SW 15.9 19.0----29.81- 65.3-----
2024-04-15 12:30 am SW 15.9 19.0----29.82- 65.5-----
2024-04-15 12:24 am SW 15.9 19.0----29.81- 65.7-----
2024-04-15 12:18 am SW 15.0 20.0----29.81- 65.7-----
2024-04-15 12:12 am SW 15.0 19.0----29.81- 65.7-----
2024-04-15 12:06 am SW 15.0 18.1----29.82- 65.5-----
2024-04-15 12:00 am SW 15.0 19.0----29.82+0.01 65.7-----
2024-04-14 11:54 pm SW 15.0 18.1----29.82- 65.7-----
2024-04-14 11:48 pm SW 15.9 19.0----29.82- 65.8-----
2024-04-14 11:42 pm SW 17.1 21.0----29.81- 66.2-----
2024-04-14 11:36 pm SW 17.1 20.0----29.82- 66.6-----
2024-04-14 11:30 pm SW 15.0 22.0----29.82- 66.4-----
2024-04-14 11:24 pm SW 17.1 20.0----29.82- 66.9-----
2024-04-14 11:18 pm SW 17.1 21.0----29.82- 67.1-----
2024-04-14 11:12 pm SW 15.9 20.0----29.82- 67.1-----
2024-04-14 11:06 pm SW 17.1 20.0----29.82- 67.5-----
2024-04-14 11:00 pm SW 17.1 19.0----29.82+0.00 67.3-----
2024-04-14 10:54 pm SW 15.9 21.0----29.82- 67.6-----
2024-04-14 10:48 pm SW 18.1 20.0----29.81- 67.8-----
2024-04-14 10:42 pm SW 15.9 21.0----29.81- 67.8-----
2024-04-14 10:36 pm SW 17.1 21.0----29.81- 68.2-----
2024-04-14 10:30 pm SW 15.0 19.0----29.81- 68.0-----
2024-04-14 10:24 pm SW 15.0 20.0----29.81- 68.4-----
2024-04-14 10:18 pm SW 14.0 18.1----29.81- 68.4-----
2024-04-14 10:12 pm SW 14.0 19.0----29.81- 68.7-----
2024-04-14 10:06 pm SW 14.0 17.1----29.81- 68.7-----
2024-04-14 10:00 pm SW 13.0 19.0----29.81-0.01 69.1-----
2024-04-14 09:54 pm SW 13.0 17.1----29.81- 69.1-----
2024-04-14 09:48 pm SW 13.0 19.0----29.81- 69.4-----
2024-04-14 09:42 pm SW 15.0 18.1----29.80- 70.0-----
2024-04-14 09:36 pm SW 15.0 20.0----29.80- 70.2-----
2024-04-14 09:30 pm SW 15.9 20.0----29.80- 70.3-----
2024-04-14 09:24 pm SW 17.1 20.0----29.80- 70.7-----
2024-04-14 09:18 pm SW 17.1 20.0----29.80- 70.3-----
2024-04-14 09:12 pm SW 15.9 19.0----29.80- 70.5-----
2024-04-14 09:06 pmSSW 17.1 20.0----29.80- 70.2-----
2024-04-14 09:00 pm SW 15.0 18.1----29.80-0.04 70.3-----
2024-04-14 08:54 pmSSW 15.9 19.0----29.80- 69.3-----
2024-04-14 08:48 pmSSW 17.1 20.0----29.80-------
2024-04-14 08:42 pmSSW 15.9 18.1----29.80-------
2024-04-14 08:36 pmSSW 15.0 17.1----29.80-------
2024-04-14 08:30 pm-------29.80- 67.3-----
2024-04-14 08:24 pm-------29.80- 68.5-----
2024-04-14 08:18 pmSSW 14.0 15.0------ 69.1-----
2024-04-14 08:12 pmSSW 12.0 14.0------ 69.6-----
2024-04-14 08:06 pmSSW 11.1 14.0------ 69.8-----
2024-04-14 08:00 pmSSW 11.1 12.0----29.81-0.04 70.0-----
2024-04-14 07:54 pmSSW 9.9 13.0----29.82- 69.4-----